• In Uzbekistan
  • List of Countries
  • For 7 days
  • Water Temperature
  • Satellite Maps
  • Weather Map
  • Weather Widgets
  • user-avatar
    Login

    Hourly Weather Carmarthen

    Today, 17 October, Tuesday

    Time Temperature Precipitation Wind Pressure Humidity
    00:00 +11°C° 0 mm 15 mps 746 mmHg 78%
    01:00 +10°C° 0.1 mm 15 mps 747 mmHg 78%
    02:00 +10°C° 0.1 mm 15 mps 748 mmHg 79%
    03:00 +10°C° 0.1 mm 14 mps 749 mmHg 79%
    04:00 +10°C° 0 mm 14 mps 750 mmHg 80%
    05:00 +10°C° 0 mm 13 mps 751 mmHg 81%
    06:00 +9°C° 0 mm 12 mps 752 mmHg 81%
    07:00 +9°C° 0 mm 12 mps 753 mmHg 82%
    08:00 +9°C° 0 mm 11 mps 754 mmHg 82%
    09:00 +9°C° 0 mm 10 mps 755 mmHg 82%
    10:00 +9°C° 0 mm 10 mps 756 mmHg 82%
    11:00 +11°C° 0 mm 10 mps 757 mmHg 82%
    12:00 +11°C° 0 mm 9 mps 757 mmHg 82%
    13:00 +11°C° 0 mm 8 mps 757 mmHg 83%
    14:00 +11°C° 0 mm 8 mps 758 mmHg 83%
    15:00 +11°C° 0 mm 7 mps 758 mmHg 84%
    16:00 +10°C° 0 mm 6 mps 758 mmHg 86%
    17:00 +10°C° 0 mm 5 mps 758 mmHg 88%
    18:00 +10°C° 0 mm 4 mps 758 mmHg 90%
    19:00 +10°C° 0 mm 4 mps 759 mmHg 91%
    20:00 +9°C° 0 mm 3 mps 759 mmHg 92%
    21:00 +9°C° 0 mm 3 mps 759 mmHg 93%
    22:00 +9°C° 0 mm 2 mps 759 mmHg 93%
    23:00 +8°C° 0 mm 2 mps 758 mmHg 94%

    Tomorrow, 18 October, Wednesday

    Time Temperature Precipitation Wind Pressure Humidity
    00:00 +9°C° 0 mm 1 mps 758 mmHg 94%
    01:00 +9°C° 0 mm 1 mps 758 mmHg 94%
    02:00 +8°C° 0 mm 1 mps 758 mmHg 94%
    03:00 +8°C° 0 mm 1 mps 758 mmHg 93%
    04:00 +8°C° 0 mm 1 mps 757 mmHg 93%
    05:00 +7°C° 0 mm 2 mps 757 mmHg 93%
    06:00 +7°C° 0 mm 2 mps 757 mmHg 92%
    07:00 +8°C° 0 mm 3 mps 757 mmHg 91%
    08:00 +9°C° 0 mm 3 mps 756 mmHg 89%
    09:00 +10°C° 0 mm 4 mps 756 mmHg 87%
    10:00 +10°C° 0 mm 5 mps 756 mmHg 85%
    11:00 +12°C° 0 mm 5 mps 755 mmHg 82%
    12:00 +11°C° 0 mm 6 mps 755 mmHg 79%
    13:00 +11°C° 0 mm 6 mps 754 mmHg 78%
    14:00 +11°C° 0 mm 6 mps 754 mmHg 78%
    15:00 +11°C° 0 mm 6 mps 753 mmHg 78%
    16:00 +11°C° 0 mm 7 mps 752 mmHg 80%
    17:00 +11°C° 0 mm 7 mps 752 mmHg 82%
    18:00 +10°C° 0 mm 7 mps 751 mmHg 84%
    19:00 +11°C° 0.4 mm 8 mps 751 mmHg 88%
    20:00 +11°C° 0.4 mm 8 mps 750 mmHg 91%
    21:00 +11°C° 0.4 mm 9 mps 750 mmHg 94%
    22:00 +12°C° 0.2 mm 8 mps 749 mmHg 94%
    23:00 +12°C° 0.2 mm 8 mps 749 mmHg 94%

    Day after tomorrow, 19 October, Thursday

    Time Temperature Precipitation Wind Pressure Humidity
    00:00 +12°C° 0.2 mm 8 mps 748 mmHg 94%
    01:00 +11°C° 0.1 mm 8 mps 748 mmHg 94%
    02:00 +11°C° 0.1 mm 7 mps 747 mmHg 93%
    03:00 +11°C° 0.1 mm 7 mps 747 mmHg 93%
    04:00 +11°C° 0.6 mm 7 mps 747 mmHg 93%
    05:00 +11°C° 0.6 mm 8 mps 746 mmHg 93%
    06:00 +11°C° 0.6 mm 8 mps 746 mmHg 93%
    07:00 +11°C° 0.6 mm 8 mps 746 mmHg 93%
    08:00 +11°C° 0.6 mm 7 mps 746 mmHg 93%
    09:00 +11°C° 0.6 mm 7 mps 745 mmHg 93%
    10:00 +11°C° 1.1 mm 6 mps 745 mmHg 92%
    11:00 +12°C° 1.1 mm 5 mps 745 mmHg 92%
    12:00 +12°C° 1.1 mm 5 mps 745 mmHg 91%
    13:00 +12°C° 0.9 mm 4 mps 745 mmHg 91%
    14:00 +12°C° 0.9 mm 4 mps 744 mmHg 91%
    15:00 +12°C° 0.9 mm 3 mps 744 mmHg 92%
    16:00 +11°C° 0.8 mm 4 mps 744 mmHg 92%
    17:00 +10°C° 0.8 mm 5 mps 744 mmHg 93%
    18:00 +9°C° 0.8 mm 6 mps 744 mmHg 93%
    19:00 +9°C° 0.6 mm 7 mps 744 mmHg 92%
    20:00 +9°C° 0.6 mm 8 mps 744 mmHg 91%
    21:00 +7°C° 0.6 mm 9 mps 745 mmHg 90%
    22:00 +7°C° 0.3 mm 9 mps 745 mmHg 88%
    23:00 +7°C° 0.3 mm 9 mps 746 mmHg 87%

    20 October, Friday

    Time Temperature Precipitation Wind Pressure Humidity
    00:00 +6°C° 0.3 mm 9 mps 746 mmHg 86%
    01:00 +6°C° 0 mm 9 mps 747 mmHg 85%
    02:00 +6°C° 0 mm 9 mps 748 mmHg 84%
    03:00 +5°C° 0 mm 8 mps 749 mmHg 84%
    04:00 +5°C° 0 mm 7 mps 749 mmHg 84%
    05:00 +5°C° 0 mm 7 mps 750 mmHg 84%
    06:00 +4°C° 0 mm 6 mps 750 mmHg 84%
    07:00 +6°C° 0 mm 5 mps 751 mmHg 83%
    08:00 +6°C° 0 mm 4 mps 751 mmHg 82%
    09:00 +7°C° 0 mm 4 mps 752 mmHg 81%
    10:00 +9°C° 0 mm 3 mps 752 mmHg 76%
    11:00 +10°C° 0 mm 2 mps 751 mmHg 72%
    12:00 +11°C° 0 mm 1 mps 751 mmHg 67%
    13:00 +10°C° 0 mm 2 mps 751 mmHg 69%
    14:00 +10°C° 0 mm 3 mps 750 mmHg 70%
    15:00 +10°C° 0 mm 4 mps 750 mmHg 71%
    16:00 +9°C° 0 mm 6 mps 748 mmHg 73%
    17:00 +7°C° 0 mm 8 mps 747 mmHg 74%
    18:00 +7°C° 0 mm 9 mps 745 mmHg 75%
    19:00 +7°C° 0.8 mm 11 mps 743 mmHg 79%
    20:00 +7°C° 0.8 mm 12 mps 742 mmHg 83%
    21:00 +8°C° 0.8 mm 13 mps 741 mmHg 87%
    22:00 +8°C° 1 mm 12 mps 740 mmHg 88%
    23:00 +9°C° 1 mm 11 mps 739 mmHg 88%

    21 October, Saturday

    Time Temperature Precipitation Wind Pressure Humidity
    00:00 +10°C° 1 mm 9 mps 737 mmHg 88%
    01:00 +9°C° 0.2 mm 11 mps 736 mmHg 86%
    02:00 +9°C° 0.2 mm 12 mps 734 mmHg 85%
    03:00 +9°C° 0.2 mm 14 mps 732 mmHg 83%
    04:00 +9°C° 1.2 mm 14 mps 731 mmHg 84%
    05:00 +9°C° 1.2 mm 14 mps 729 mmHg 85%
    06:00 +10°C° 1.2 mm 14 mps 727 mmHg 86%
    07:00 +9°C° 0.7 mm 12 mps 726 mmHg 88%
    08:00 +9°C° 0.7 mm 10 mps 726 mmHg 90%
    09:00 +10°C° 0.7 mm 8 mps 725 mmHg 92%
    10:00 +10°C° 0.3 mm 9 mps 726 mmHg 92%
    11:00 +10°C° 0.3 mm 9 mps 727 mmHg 92%
    12:00 +9°C° 0.3 mm 10 mps 727 mmHg 92%
    13:00 +9°C° 0.9 mm 11 mps 729 mmHg 91%
    14:00 +9°C° 0.9 mm 13 mps 730 mmHg 89%
    15:00 +8°C° 0.9 mm 14 mps 731 mmHg 88%
    16:00 +8°C° 0.4 mm 14 mps 733 mmHg 88%
    17:00 +8°C° 0.4 mm 13 mps 734 mmHg 88%
    18:00 +8°C° 0.4 mm 13 mps 736 mmHg 87%
    19:00 +8°C° 0.3 mm 13 mps 737 mmHg 86%
    20:00 +8°C° 0.3 mm 14 mps 739 mmHg 85%
    21:00 +6°C° 0.3 mm 14 mps 740 mmHg 84%
    22:00 +6°C° 0.2 mm 14 mps 741 mmHg 83%
    23:00 +6°C° 0.2 mm 15 mps 741 mmHg 83%

    22 October, Sunday

    Time Temperature Precipitation Wind Pressure Humidity
    00:00 +5°C° 0.2 mm 15 mps 742 mmHg 83%
    01:00 +6°C° 0.5 mm 15 mps 742 mmHg 84%
    02:00 +6°C° 0.5 mm 15 mps 742 mmHg 86%
    03:00 +6°C° 0.5 mm 15 mps 742 mmHg 87%
    04:00 +6°C° 1.1 mm 15 mps 743 mmHg 87%
    05:00 +8°C° 1.1 mm 15 mps 743 mmHg 87%
    06:00 +8°C° 1.1 mm 15 mps 744 mmHg 87%
    07:00 +8°C° 0.4 mm 14 mps 745 mmHg 87%
    08:00 +8°C° 0.4 mm 14 mps 746 mmHg 87%
    09:00 +8°C° 0.4 mm 14 mps 747 mmHg 87%
    10:00 +8°C° 0.2 mm 13 mps 748 mmHg 86%
    11:00 +8°C° 0.2 mm 13 mps 749 mmHg 84%
    12:00 +8°C° 0.2 mm 13 mps 750 mmHg 83%
    13:00 +8°C° 0 mm 12 mps 751 mmHg 80%
    14:00 +8°C° 0 mm 11 mps 751 mmHg 78%
    15:00 +8°C° 0 mm 10 mps 752 mmHg 76%
    16:00 +8°C° 0 mm 9 mps 752 mmHg 80%
    17:00 +8°C° 0 mm 7 mps 753 mmHg 83%
    18:00 +8°C° 0 mm 6 mps 753 mmHg 87%
    19:00 +8°C° 0 mm 6 mps 753 mmHg 88%
    20:00 +9°C° 0 mm 6 mps 753 mmHg 89%
    21:00 +9°C° 0 mm 6 mps 752 mmHg 90%
    22:00 +10°C° 0.5 mm 6 mps 751 mmHg 91%
    23:00 +10°C° 0.5 mm 7 mps 750 mmHg 93%
    Show more